sat.trackr.live / text

‹ back to catalog

STARLINK-6063

NORAD 56811 · 2023-078AW

PAYLOAD ACTIVE UNKNOWN

§ Identity

Operator
Country
US
Launch date
2023-05-31
Launch site
AFWTR
Launch vehicle
Mass (kg)
RCS (m²)

Purposes: comms

External: N2YO · Heavens-Above · Gunter

§ Orbital elements

Epoch: 2026-05-25T02:49:20.693568Z

Period
88.22 min
Inclination
69.9877°
Eccentricity
0.0014359
Mean motion
16.32356160 rev/d
Perigee alt
176.8 km
Apogee alt
195.6 km
Semi-major
6,564.4 km
B*
6.0582e-4
RAAN
78.4463°
Arg perigee
228.4841°
Mean anomaly
131.5155°
Rev number
16,593

§ Raw data

STARLINK-60631 56811U 23078AW  26145.11760062  .03503530  42988-5  60582-3 0  99912 56811  69.9877  78.4463 0014359 228.4841 131.5155 16.32356160165930

JSON: /api/v1/satellites/56811 · /tle

For live sub-satellite position, see the globe view (requires WebGL).

§ Visibility from observer

Set your observer location to see the next 7 days of passes ≥ 10°. The values pass through the URL so the page stays shareable.

No JS? Fill the form by hand. The geolocation button needs JavaScript.